Alyeska Resort
Max's Hourly Weather Roundup
ALYESKA_MAX 6/23/2017
Click Here for Graph

        DATE  TIME   Air  Wind  Wind  Wind  BATT   Rel
                    Temp   Spd   Dir  Gust  Volt  Hum%
                      F   MPH   AVG   MPH   AVG   AVG

   6/23/2017 15:00    44     0   207     2 13.60   100
   6/23/2017 14:00    43     0   270     2 13.58   100
   6/23/2017 13:00    44     0   224     4 13.57   100
   6/23/2017 12:00    44     0   162     0 13.55   100
   6/23/2017 11:00    43     0   165     0 13.70   100
   6/23/2017 10:00    42     0   208     0 13.58   100
   6/23/2017 09:00    41     0   191     0 13.22   100
   6/23/2017 08:00    42     0   169     0 12.93   100
   6/23/2017 07:00    41     0   172     0 12.80   100
   6/23/2017 06:00    41     0   232     0 12.77   100
   6/23/2017 05:00    41     0   143     0 12.78   100
   6/23/2017 04:00    41     0   192     0 12.79   100
   6/23/2017 03:00    42     0   103     0 12.81   100
   6/23/2017 02:00    41     0   269     0 12.84   100
   6/23/2017 01:00    41     1   135     5 12.88   100
   6/22/2017 24:00    42     0   219     0 12.93   100
   6/22/2017 23:00    43     0    74     0 13.03   100
   6/22/2017 22:00    43     0   165     4 13.30   100
   6/22/2017 21:00    44     0   128     4 13.90   100
   6/22/2017 20:00    44     0   113     5 13.87   100
   6/22/2017 19:00    44     0   151     5 13.87   100
   6/22/2017 18:00    44     0   248     2 13.82   100
   6/22/2017 17:00    45     0   155     5 13.75   100
   6/22/2017 16:00    44     0   206     4 13.72   100


Click Here for Graph